Terminal Aerodrome Forecast
Issued by NWS

Home | Current Version | Previous Version | Text Only | Print | Product List | Glossary On
Versions: 1 2 3 4 5 6 7 8 9 10 11 12
000
FTUS46 KPDT 172300
TAFPSC
TAF
KPSC 172320Z 1800/1824 21011KT P6SM -RA BKN050 OVC080
     FM180400 25015G25KT P6SM BKN050 BKN100
     FM180900 23018G28KT P6SM SCT050
     FM181400 22011G17KT P6SM SKC
     FM182100 24008KT P6SM FEW250=

USA.gov is the U.S. government's official web portal to all federal, state and local government web resources and services.